Location: Zagreb
(45.8000°N, 16.0000°E)
Time: 21:56:51
(UTC+01:00)

Tiros 1 despin weight - Pass Details

Date: 26 January 2020
Orbit: 594 x 642 km, 48.2° (Epoch: 24 February)

Event Time Altitude Azimuth Distance (km) Brightness Sun altitude
Rises 09:16:16 0° 184° (S) 2,835 ? 14.5°
Reaches altitude 10° 09:20:13 10° 149° (SSE) 1,950 ? 15.0°
Maximum altitude 09:21:30 11° 132° (SE) 1,883 ? 15.1°
Drops below altitude 10° 09:22:48 10° 116° (ESE) 1,962 ? 15.3°
Sets 09:26:48 0° 81° (E) 2,887 ? 15.7°
